Powrót do katalogu

COSMOS 886 DEB *

AktywnyLEO
NORAD 9798·DEBRIS·🇷🇺 Russia

Wystrzelony Dec 27, 1976 z Baikonur Cosmodrome

Loading…

Następne Przeloty (najbliższe 24 godziny)

TLE

ŚwieżeSource: Space-Track

Epoka: Sep 14, 2026, 03:10 UTC

1 09798U 76126Y   26257.13196855  .00000018  00000-0  12024-3 0  9996
2 09798  65.7535 114.1007 0123033 136.3533 308.3355 13.61284296460498

Śledź COSMOS 886 DEB * w czasie rzeczywistym z AllMySat

Download on the App Store